Regional Weather Roundup
Issued by NWS

Home | Current Version | Previous Version | Graphics & Text | Print | Product List | Glossary On
Versions: 1 2 3 4 5 6 7 8 9 10 11 12 13 14 15 16 17 18 19 20 21 22 23 24 25 26 27 28 29 30 31 32 33 34 35 36 37 38 39 40 41 42 43 44 45 46 47 48 49 50
000
ASUS43 KLMK 270410
RWRKY
KENTUCKY REGIONAL WEATHER ROUNDUP
NATIONAL WEATHER SERVICE LOUISVILLE KY
1100 PM EST MON JAN 26 2015

NOTE "FAIR" INDICATES FEW OR NO CLOUDS BELOW 12,000 FEET
WITH NO SIGNIFICANT WEATHER AND/OR OBSTRUCTIONS TO VISIBILITY.

KYZ001>023-026-027-061>063-070>075-270500-
WESTERN AND SOUTH CENTRAL KENTUCKY

CITY           SKY/WX    TMP DP  RH WIND       PRES   REMARKS
PADUCAH        CLOUDY    36  31  82 CALM      29.94R
HENDERSON      CLOUDY    30  27  86 SE5       29.94F WCI  25
OWENSBORO      CLOUDY    30  29  96 S5        29.95F WCI  25
HOPKINSVILLE   CLOUDY    33  31  89 E6        29.95S WCI  28
BOWLING GREEN  CLOUDY    31  28  89 SE3       29.96F FOG
GLASGOW        CLOUDY    29  29 100 CALM      29.95F
$$

KYZ024-025-028>034-038-045-046-053-270500-
NORTH CENTRAL KENTUCKY

CITY           SKY/WX    TMP DP  RH WIND       PRES   REMARKS
LOUISVILLE/SDF CLOUDY    31  25  78 W5        29.95S WCI  26
LOUISVILLE/LOU CLOUDY    30  24  78 W6        29.95F WCI  24
FORT KNOX      CLOUDY    28  25  86 SW3       29.93F
$$

KYZ035>037-039>044-047>052-055>060-089>105-270500-
NORTHEAST KENTUCKY

CITY           SKY/WX    TMP DP  RH WIND       PRES   REMARKS
LEXINGTON      CLOUDY    28  23  81 CALM      29.93F
COVINGTON      CLOUDY    25  17  72 E5        29.93S WCI  19
FRANKFORT      CLOUDY    29  22  75 S3        29.92F
$$

KYZ054-064>069-076>088-106>120-270500-
SOUTHEAST KENTUCKY

CITY           SKY/WX    TMP DP  RH WIND       PRES   REMARKS
JACKSON        CLOUDY    26  21  81 CALM      29.91F
LONDON         CLOUDY    30  22  72 W5        29.93S WCI  25
SOMERSET       CLOUDY    28  28 100 W5        29.96S WCI  23
MIDDLESBORO    CLOUDY    31  24  77 CALM      29.93F
MONTICELLO     LGT SNOW  30  29  96 CALM      29.97S FOG
$$



USA.gov is the U.S. government's official web portal to all federal, state and local government web resources and services.